Miscellaneous Local Product
Issued by NWS North Platte, NE

Home | Current Version | Previous Version | Text Only | Print | Product List | Glossary On
Versions: 1 2 3 4 5 6 7 8 9 10 11 12 13 14 15 16 17 18 19 20 21 22 23 24 25 26 27 28 29 30 31 32 33 34 35 36 37 38 39 40 41 42 43 44 45 46 47 48 49 50
000
AXUS43 KLBF 200110
MISLBF


WESTERN AND NORTH CENTRAL NEBRASKA HOURLY WEATHER ROUNDUP
NATIONAL WEATHER SERVICE NORTH PLATTE NE
800 PM CDT TUE AUG 19 2014

***STATIONS NOT REPORTING VARIABLES SUCH AS SKY/WEATHER OR
PRESSURE ARE PROVIDED BY THE NEBRASKA DEPARTMENT OF
ROADS...RAWS...AND APRS NETWORKS...AND ARE NOT UNDER
NATIONAL WEATHER SERVICE QUALITY CONTROL***

...OBSERVATIONS IN AND NEAR THE EASTERN PANHANDLE OF NEBRASKA...

CITY           SKY/WX    TMP DP  RH WIND       PRES   REMARKS
PINE RIDGE     PTCLDY    73  59  61 VRB6      29.73S THUNDER
CHADRON        MOCLDY    91  54  28 S18G26    29.70S
ALLIANCE       CLOUDY    83  45  26 W13G25    29.84R
SIDNEY         CLOUDY    78  51  38 N21G33    29.87R
WHITECLAY        N/A     77  55  47 NE8         N/A
RUSHVILLE        N/A     87  48  25 S13         N/A
GORDON           N/A     94  58  29 S18         N/A  HX  93
CRESCENT LAKE    N/A     82  53  36 E6          N/A
LISCO            N/A     74  61  63 W29         N/A
$$

...OBSERVATIONS IN NORTH CENTRAL NEBRASKA...

CITY           SKY/WX    TMP DP  RH WIND       PRES   REMARKS
VALENTINE      MOCLDY    84  62  47 SE14      29.76F
THEDFORD       PTCLDY    82  65  55 SE8       29.79F
AINSWORTH      MOCLDY    80  64  59 SE12      29.79F
O`NEILL        MOCLDY    80  67  65 SE8       29.80S
ORD            CLOUDY    81  70  69 E8        29.77F
BROKEN BOW     CLEAR     81  68  64 SE9       29.79S
BROWNLEE         N/A     83  64  51 E14         N/A
SPRINGVIEW       N/A     83  68  60 SE7         N/A
ROSE             N/A     83  72  68 E9          N/A
NEWPORT          N/A     80  69  70 SE7         N/A
SARGENT          N/A     80  71  73 CALM        N/A
COMSTOCK         N/A     86  76  71 SE7         N/A  HX  95
CHAMBERS         N/A     80  67  63 SE3         N/A
EWING            N/A     77  69  75 CALM        N/A
$$

...OBSERVATIONS IN SOUTHWEST NEBRASKA AND FAR NORTHEAST COLORADO...

CITY           SKY/WX    TMP DP  RH WIND       PRES   REMARKS
WRAY             N/A     88  57  35 E9        29.75S
IMPERIAL       PTCLDY    86  62  44 E9        29.75F
OGALLALA       CLOUDY    82  60  47 E7        29.77S
NORTH PLATTE   PTCLDY    79  68  69 E14       29.75F
MCCOOK         CLEAR     88  63  43 E14       29.74S
LEXINGTON      CLEAR     82  69  65 E9        29.76S
SUTHERLAND       N/A     84  68  58 E3          N/A
BRADY            N/A     79  69  70 N5          N/A
GOTHENBURG       N/A     82  66  58 E8          N/A
CALLAWAY         N/A     85  72  64 SE10        N/A  HX  90
$$

...SOME WEATHER OBSERVATIONS FROM AROUND THE REGION...

CITY           SKY/WX    TMP DP  RH WIND       PRES   REMARKS
DENVER         CLOUDY    71  52  50 NE9       29.91F
LARAMIE        PTCLDY    68  42  38 NE7       30.04F
CHEYENNE       CLEAR     73  45  36 NW9       29.96S
SCOTTSBLUFF    CLOUDY    75  57  53 SE9       29.82R
RAPID CITY     PTCLDY    75  62  64 N6        29.73F
PIERRE         PTCLDY    84  60  44 SE10      29.71S
WINNER         FAIR      81  65  58 E13       29.75F
SIOUX FALLS    PTCLDY    77  64  64 CALM      29.79R
OMAHA          PTCLDY    82  66  58 E5        29.79R
GRAND ISLAND   PTCLDY    83  69  62 SE7       29.78F
KANSAS CITY    PTCLDY    84  73  69 SE5       29.79S HX  90
WICHITA        PTCLDY    88  65  46 S12       29.78S HX  90
HAYS           CLEAR     90  63  40 S16G24    29.77R HX  90
LIBERAL        CLEAR     90  57  33 S13G20    29.84R
GOODLAND       PTCLDY    84  56  38 SE17G25   29.77S
$$



USA.gov is the U.S. government's official web portal to all federal, state and local government web resources and services.